Regional Weather Roundup
Issued by NWS Northern Indiana

Current Version | Previous Version | Text Only | Print | Product List | Glossary On
Versions: 1 2 3 4 5 6 7 8 9 10 11 12 13 14 15 16 17 18 19 20 21 22 23 24 25 26 27 28 29 30 31 32 33 34 35 36 37 38 39 40 41 42 43 44 45 46 47 48 49 50
000
ASUS43 KIWX 242310
RWRIWX

KIWX WEATHER ROUNDUP
NATIONAL WEATHER SERVICE NORTHERN INDIANA
700 PM EDT SUN SEP 24 2017

NOTE: "FAIR" INDICATES FEW OR NO CLOUDS BELOW 12,000 FEET WITH NO
SIGNIFICANT WEATHER AND/OR OBSTRUCTIONS TO VISIBILITY.

* THESE STATIONS ARE NOT UNDER NWS QUALITY CONTROL. THEY ALSO MAY NOT
  REPORT WEATHER SUCH AS PRECIPITATION OR FOG.

INZ001>027-250000-
NORTHERN INDIANA

CITY           SKY/WX    TMP DP  RH WIND       PRES   REMARKS
GARY*          PTCLDY    81  63  54 E6        30.02S
VALPARAISO     CLEAR     88  56  33 SE7       30.03S
MICHIGAN CITY* CLEAR     82  57  42 CALM      30.03S
LAPORTE*       CLEAR     86  57  37 SE5       30.04S
KNOX*          CLEAR     86  54  32 SE3       30.03R
SOUTH BEND     CLEAR     86  56  35 SE9       30.05R
GOSHEN         CLEAR     84  59  42 E3        30.05S
MONTICELLO*    CLEAR     87  53  31 CALM      30.02R
LOGANSPORT*    CLEAR     84  52  32 CALM      30.04S
WARSAW*        CLEAR     82  59  44 E6        30.05S
AUBURN*        CLEAR     82  61  47 CALM      30.07S HAZE
FORT WAYNE     PTCLDY    84  59  42 E5        30.06R
HUNTINGTON*    CLEAR     85  52  31 SE3       30.04S
PERU/GRISSOM   CLEAR     86  55  34 S3        30.03S

$$
INZ028>050-250000-
CENTRAL INDIANA

CITY           SKY/WX    TMP DP  RH WIND       PRES   REMARKS
LAFAYETTE      CLEAR     85  55  35 SE5       30.01R
KOKOMO*        CLEAR     82  60  47 S5        30.05S
MUNCIE*        CLEAR     87  51  28 S5        30.06R
INDIANAPOLIS   PTCLDY    86  56  35 SE8       30.03R

$$
MIZ043>046-050>051-056>058-064>065-071>073-077>080-250000-
SOUTHWEST LOWER MICHIGAN

CITY           SKY/WX    TMP DP  RH WIND       PRES   REMARKS
BATTLE CREEK   CLEAR     86  57  37 S7        30.08S
BENTON HARBOR  CLEAR     85  56  37 SE6       30.03S
COLDWATER*     CLEAR     85  55  36 CALM      30.08R
HILLSDALE*     MOCLDY    82  55  39 CALM      30.09R
HOLLAND        CLEAR     85  59  41 NW3       30.05S
GRAND RAPIDS   CLEAR     89  56  32 S8        30.05S
KALAMAZOO      CLEAR     87  53  31 SE6       30.06S
STURGIS*       CLEAR     85  57  38 SE5       30.06S
THREE RIVERS*  FAIR      87  56  34 SE5       30.06S

$$
OHZ001>008-015>018-024>025-250000-
NORTHWEST OHIO

CITY           SKY/WX    TMP DP  RH WIND       PRES   REMARKS
WAUSEON*       FAIR      82  61  47 E7        30.07S
DEFIANCE       CLEAR     86  62  44 CALM      30.06R
FINDLAY        CLEAR     87  59  38 E5        30.06R
TOLEDO EXPRESS CLEAR     82  66  58 NE7       30.07S
TOLEDO METCALF CLEAR     81  66  60 E6        30.08S
LIMA           CLEAR     85  58  39 SE6       30.07S

$$
AND FOR LAKE MICHIGAN COASTAL AND OPEN LAKE BUOY OBSERVATIONS

STATION/POSITION TEMP    WIND        PRES    VSBY  WAVE
                 AIR SEA DIR/SP/G                  HT/PER
                 (F)     (DEG/KT/KT) (MB)    (MI)  (FT/S)
CALUMET HARBOR    78      30/  5/  6 1015.7S
MICHIGAN CITY     76      40/  9/ 10   N/A
BURNS HARBOR      77     320/  3/  7 1016.9R
SAINT JOSEPH      91     230/  1/  3 1017.6
SOUTH LAKE BUOY   78 72  160/  2/  2 1016.6F         0
4 MI NW BRIDGMAN  75 73   50/  6/  6 1016.5          0
MICHIGAN CITY     77 73   70/  6/ 10   N/A           1

$$
&&



USA.gov is the U.S. government's official web portal to all federal, state and local government web resources and services.